TimeCDT,TemperatureF,Dew PointF,Humidity,Sea Level PressureIn,VisibilityMPH,Wind Direction,Wind SpeedMPH,Gust SpeedMPH,PrecipitationIn,Events,Conditions,WindDirDegrees,DateUTC
12:15 AM,50.0,32.0,50,29.64,10.0,South,19.6,-,N/A,,Scattered Clouds,170,2012-09-19 05:15:00
12:36 AM,50.0,33.8,54,29.63,10.0,South,18.4,24.2,N/A,,Clear,180,2012-09-19 05:36:00
12:55 AM,51.8,33.8,50,29.61,10.0,South,19.6,23.0,N/A,,Scattered Clouds,170,2012-09-19 05:55:00
1:15 AM,51.8,33.8,50,29.60,10.0,South,19.6,-,N/A,,Mostly Cloudy,180,2012-09-19 06:15:00
1:36 AM,53.6,33.8,47,29.58,10.0,South,21.9,27.6,N/A,,Mostly Cloudy,180,2012-09-19 06:36:00
1:55 AM,53.6,33.8,47,29.57,10.0,South,21.9,28.8,N/A,,Mostly Cloudy,180,2012-09-19 06:55:00
2:15 AM,53.6,33.8,47,29.56,10.0,South,20.7,25.3,N/A,,Scattered Clouds,190,2012-09-19 07:15:00
2:35 AM,53.6,33.8,47,29.55,10.0,South,17.3,26.5,N/A,,Clear,190,2012-09-19 07:35:00
2:55 AM,53.6,33.8,47,29.56,10.0,SSW,18.4,24.2,N/A,,Clear,200,2012-09-19 07:55:00
3:15 AM,53.6,33.8,47,29.54,10.0,SSW,20.7,26.5,N/A,,Scattered Clouds,200,2012-09-19 08:15:00
3:35 AM,53.6,33.8,47,29.53,10.0,SSW,19.6,25.3,N/A,,Clear,200,2012-09-19 08:35:00
3:55 AM,53.6,33.8,47,29.54,10.0,SSW,18.4,21.9,N/A,,Scattered Clouds,210,2012-09-19 08:55:00
4:16 AM,53.6,33.8,47,29.54,10.0,SW,13.8,-,N/A,,Clear,220,2012-09-19 09:16:00
4:55 AM,51.8,33.8,50,29.54,10.0,SW,10.4,-,N/A,,Clear,220,2012-09-19 09:55:00
5:16 AM,51.8,35.6,54,29.54,10.0,SW,9.2,-,N/A,,Clear,230,2012-09-19 10:16:00
5:35 AM,50.0,35.6,58,29.54,10.0,WSW,8.1,-,N/A,,Clear,240,2012-09-19 10:35:00
5:55 AM,48.2,35.6,62,29.54,10.0,SW,10.4,-,N/A,,Clear,220,2012-09-19 10:55:00
6:16 AM,48.2,37.4,66,29.55,10.0,WSW,9.2,-,N/A,,Clear,250,2012-09-19 11:16:00
6:35 AM,48.2,37.4,66,29.55,10.0,Calm,Calm,-,N/A,,Clear,0,2012-09-19 11:35:00
6:55 AM,48.2,37.4,66,29.56,10.0,WSW,5.8,-,N/A,,Clear,250,2012-09-19 11:55:00
7:16 AM,46.4,39.2,76,29.56,10.0,WSW,6.9,-,N/A,,Clear,250,2012-09-19 12:16:00
7:35 AM,48.2,41.0,76,29.56,10.0,West,10.4,-,N/A,,Clear,270,2012-09-19 12:35:00
7:55 AM,51.8,42.8,71,29.57,10.0,West,13.8,18.4,N/A,,Clear,270,2012-09-19 12:55:00
8:16 AM,53.6,42.8,67,29.57,10.0,West,13.8,20.7,N/A,,Scattered Clouds,280,2012-09-19 13:16:00
8:35 AM,53.6,42.8,67,29.57,10.0,West,16.1,24.2,N/A,,Scattered Clouds,280,2012-09-19 13:35:00
8:55 AM,53.6,42.8,67,29.58,10.0,West,17.3,23.0,N/A,,Mostly Cloudy,280,2012-09-19 13:55:00
9:16 AM,55.4,42.8,63,29.58,10.0,WNW,16.1,24.2,N/A,,Mostly Cloudy,290,2012-09-19 14:16:00
9:55 AM,57.2,42.8,59,29.60,10.0,WNW,13.8,27.6,N/A,,Overcast,300,2012-09-19 14:55:00
10:35 AM,53.6,46.4,77,29.62,5.0,WNW,13.8,25.3,N/A,Rain,Rain,290,2012-09-19 15:35:00
10:55 AM,53.6,46.4,77,29.62,10.0,WNW,15.0,-,N/A,,Mostly Cloudy,290,2012-09-19 15:55:00
11:15 AM,53.6,44.6,72,29.62,10.0,West,18.4,27.6,N/A,,Overcast,280,2012-09-19 16:15:00
11:35 AM,53.6,44.6,72,29.64,10.0,WNW,20.7,25.3,N/A,,Overcast,290,2012-09-19 16:35:00
11:56 AM,53.6,44.6,72,29.64,10.0,WNW,20.7,29.9,N/A,,Overcast,300,2012-09-19 16:56:00
12:15 PM,53.6,46.4,77,29.66,7.0,WNW,19.6,27.6,N/A,Rain,Rain,300,2012-09-19 17:15:00
12:35 PM,51.8,44.6,76,29.66,10.0,WNW,16.1,21.9,N/A,,Mostly Cloudy,290,2012-09-19 17:35:00
12:55 PM,55.4,44.6,67,29.67,7.0,NW,19.6,25.3,N/A,,Mostly Cloudy,320,2012-09-19 17:55:00
1:15 PM,50.0,44.6,82,29.68,10.0,WNW,12.7,18.4,N/A,Rain,Light Rain,300,2012-09-19 18:15:00
1:35 PM,51.8,44.6,76,29.69,10.0,WNW,15.0,23.0,0.01,,Overcast,300,2012-09-19 18:35:00
1:55 PM,53.6,46.4,77,29.69,10.0,WNW,11.5,19.6,0.01,,Overcast,300,2012-09-19 18:55:00
2:16 PM,51.8,44.6,76,29.70,10.0,NW,20.7,27.6,N/A,Rain,Light Rain,310,2012-09-19 19:16:00
2:35 PM,53.6,42.8,67,29.70,10.0,NW,21.9,28.8,N/A,,Overcast,310,2012-09-19 19:35:00
2:55 PM,55.4,42.8,63,29.70,10.0,WNW,19.6,34.5,N/A,,Mostly Cloudy,300,2012-09-19 19:55:00
3:16 PM,53.6,41.0,62,29.71,10.0,NW,20.7,32.2,N/A,,Overcast,310,2012-09-19 20:16:00
3:35 PM,53.6,39.2,58,29.72,10.0,WNW,19.6,31.1,N/A,,Overcast,300,2012-09-19 20:35:00
3:55 PM,53.6,39.2,58,29.73,10.0,WNW,16.1,24.2,N/A,,Overcast,290,2012-09-19 20:55:00
4:16 PM,53.6,37.4,54,29.74,10.0,WNW,15.0,23.0,N/A,,Overcast,300,2012-09-19 21:16:00
4:35 PM,55.4,37.4,51,29.74,10.0,WNW,18.4,25.3,N/A,,Overcast,300,2012-09-19 21:35:00
4:55 PM,55.4,33.8,44,29.74,10.0,NW,18.4,28.8,N/A,,Overcast,320,2012-09-19 21:55:00
5:16 PM,55.4,33.8,44,29.75,10.0,NNW,26.5,29.9,N/A,,Overcast,330,2012-09-19 22:16:00
5:35 PM,55.4,33.8,44,29.76,10.0,NW,15.0,28.8,N/A,,Overcast,320,2012-09-19 22:35:00
5:55 PM,53.6,35.6,51,29.76,10.0,NNW,17.3,21.9,N/A,,Overcast,330,2012-09-19 22:55:00
6:16 PM,53.6,35.6,51,29.77,10.0,NNW,16.1,21.9,N/A,,Overcast,330,2012-09-19 23:16:00
6:35 PM,53.6,35.6,51,29.78,10.0,NNW,15.0,23.0,N/A,,Overcast,330,2012-09-19 23:35:00
6:55 PM,53.6,35.6,51,29.78,10.0,NW,12.7,-,N/A,,Overcast,320,2012-09-19 23:55:00
7:16 PM,51.8,35.6,54,29.78,10.0,NW,9.2,-,N/A,,Overcast,310,2012-09-20 00:16:00
7:35 PM,51.8,35.6,54,29.79,10.0,WNW,13.8,17.3,N/A,,Mostly Cloudy,300,2012-09-20 00:35:00
7:55 PM,51.8,35.6,54,29.80,10.0,NW,13.8,21.9,N/A,,Scattered Clouds,310,2012-09-20 00:55:00
8:16 PM,51.8,35.6,54,29.81,10.0,NW,17.3,21.9,N/A,,Mostly Cloudy,310,2012-09-20 01:16:00
8:35 PM,51.8,35.6,54,29.81,10.0,NW,16.1,19.6,N/A,,Overcast,310,2012-09-20 01:35:00
8:55 PM,51.8,35.6,54,29.81,10.0,NW,17.3,25.3,N/A,,Overcast,320,2012-09-20 01:55:00
9:15 PM,50.0,35.6,58,29.81,10.0,NW,15.0,-,N/A,,Overcast,310,2012-09-20 02:15:00
9:35 PM,50.0,35.6,58,29.81,10.0,NW,13.8,20.7,N/A,,Overcast,310,2012-09-20 02:35:00
9:55 PM,48.2,35.6,62,29.81,10.0,NW,17.3,24.2,N/A,,Mostly Cloudy,310,2012-09-20 02:55:00
10:15 PM,50.0,35.6,58,29.82,10.0,NW,13.8,19.6,N/A,,Mostly Cloudy,310,2012-09-20 03:15:00
10:35 PM,50.0,35.6,58,29.82,10.0,NW,15.0,-,N/A,,Overcast,310,2012-09-20 03:35:00
10:55 PM,48.2,35.6,62,29.82,10.0,NW,12.7,-,N/A,,Scattered Clouds,310,2012-09-20 03:55:00
11:35 PM,46.4,35.6,66,29.83,10.0,WNW,9.2,-,N/A,,Scattered Clouds,290,2012-09-20 04:35:00
11:55 PM,44.6,35.6,71,29.83,10.0,WNW,9.2,-,N/A,,Clear,290,2012-09-20 04:55:00